Location: Devargunta
(16.7631°N, 80.9077°E)
Time: 11:42:06
(UTC+00:00)

Nadezhda 4 Rocket - Pass Details

Date: 19 January 2021
Orbit: 949 x 992 km, 83.0° (Epoch: 07 March)

Event Time Altitude Azimuth Distance (km) Brightness Sun altitude
Rises 13:07:38 0° 188° (S) 3,692 7.4 -10.4°
Reaches altitude 10° 13:10:10 10° 190° (S) 2,742 6.7 -10.9°
Maximum altitude 13:16:26 72° 274° (W) 1,032 4.3 -12.4°
Drops below altitude 10° 13:22:40 10° 358° (N) 2,723 6.2 -13.8°
Sets 13:25:11 0° 1° (N) 3,665 6.8 -14.4°
